Weather History for KAQV - May, 2013

Change the Weather History Date:

Thursday, May 9, 2013

  Actual Average (KPOE) Record (KPOE)
Temperature  
Mean Temperature 70 °F -  
Max Temperature 79 °F 81 °F 91 °F (2008)
Min Temperature 62 °F 62 °F 60 °F (2001)
Cooling Degree Days 6    
Growing Degree Days 20 (Base 50)    
Moisture  
Dew Point 67 °F    
Average Humidity 87    
Maximum Humidity 100    
Minimum Humidity 64    
Precipitation  
Precipitation 1.56 in - - ()
Sea Level Pressure  
Sea Level Pressure 30.00 in    
Wind  
Wind Speed 2 mph (SSE)    
Max Wind Speed 7 mph    
Max Gust Speed -    
Visibility 7 miles    
Events Rain , Thunderstorm    
Averages and records for this station are not official NWS values.
T = Trace of Precipitation, MM = Missing Value Source: NWS Daily Summary

Daily Weather History Graph

Daily Weather History Graph

Search for Another Location

Airport or City:

Trip Planner

Search our weather history database for the weather conditions in past years. The results will help you decide how hot, cold, wet, or windy it might be!

Date:

Astronomy

May. 09, 2013 Rise Set
Actual Time 6:21 AM CDT 7:58 PM CDT
Civil Twilight 5:54 AM CDT 8:24 PM CDT
Nautical Twilight 5:23 AM CDT 8:56 PM CDT
Astronomical Twilight 4:50 AM CDT 9:29 PM CDT
Moon 6:04 AM CDT (5/9) 7:54 PM CDT (5/9)
Length of Visible Light 14h 29m
Length of Day
13h 37m
Waning Crescent, 0% of the Moon is Illuminated
May 9
Waning Crescent
May 9
New
May 17
First Quarter
May 24
Full
May 31
Last Quarter

Hourly Weather History & Observations

Time (CDT) Temp. Dew Point Humidity Pressure Visibility Wind Dir Wind Speed Gust Speed Precip Events Conditions
12:56 AM 64.0 °F 59.0 °F 84% 30.00 in 10.0 mi South 3.5 mph - N/A   Clear
1:56 AM 63.0 °F 60.1 °F 90% 29.99 in 10.0 mi Calm Calm - N/A   Clear
2:44 AM 62.6 °F 60.8 °F 94% 30.00 in 10.0 mi Calm Calm - N/A   Mostly Cloudy
2:56 AM 62.1 °F 60.1 °F 93% 30.00 in 9.0 mi Calm Calm - N/A   Mostly Cloudy
3:18 AM 62.6 °F 60.8 °F 94% 30.00 in 8.0 mi Calm Calm - N/A   Scattered Clouds
3:29 AM 62.6 °F 60.8 °F 94% 30.01 in 8.0 mi Calm Calm - N/A   Mostly Cloudy
3:56 AM 64.0 °F 61.0 °F 90% 30.01 in 10.0 mi Calm Calm - N/A   Overcast
4:07 AM 64.4 °F 62.6 °F 94% 30.01 in 9.0 mi Calm Calm - N/A   Overcast
4:56 AM 64.0 °F 62.1 °F 93% 30.01 in 8.0 mi Calm Calm - N/A   Overcast
5:52 AM 66.2 °F 64.4 °F 94% 30.01 in 8.0 mi Calm Calm - N/A   Overcast
5:56 AM 66.0 °F 64.0 °F 93% 30.00 in 9.0 mi Calm Calm - N/A   Overcast
6:41 AM 66.2 °F 64.4 °F 94% 30.03 in 10.0 mi Calm Calm - N/A   Overcast
6:56 AM 66.9 °F 64.0 °F 90% 30.03 in 5.0 mi Variable 3.5 mph - N/A   Overcast
7:56 AM 68.0 °F 64.9 °F 90% 30.04 in 10.0 mi Variable 5.8 mph - N/A   Overcast
8:56 AM 70.0 °F 64.9 °F 84% 30.04 in 10.0 mi Variable 4.6 mph - N/A   Overcast
9:25 AM 71.6 °F 66.2 °F 83% 30.05 in 10.0 mi SSE 4.6 mph - N/A   Overcast
9:56 AM 73.0 °F 66.0 °F 79% 30.04 in 10.0 mi Variable 4.6 mph - N/A   Overcast
10:56 AM 73.9 °F 66.0 °F 76% 30.06 in 10.0 mi Variable 4.6 mph - N/A   Overcast
11:34 AM 75.2 °F 66.2 °F 73% 30.06 in 10.0 mi South 6.9 mph - N/A   Overcast
11:56 AM 77.0 °F 66.0 °F 69% 30.06 in 10.0 mi South 6.9 mph - N/A   Mostly Cloudy
12:14 PM 78.8 °F 66.2 °F 65% 30.06 in 10.0 mi South 6.9 mph - N/A   Overcast
12:21 PM 78.8 °F 66.2 °F 65% 30.05 in 10.0 mi SSE 4.6 mph - N/A   Overcast
12:56 PM 79.0 °F 66.0 °F 64% 30.03 in 10.0 mi Variable 5.8 mph - N/A   Overcast
1:29 PM 77.0 °F 64.4 °F 65% 30.04 in 10.0 mi South 4.6 mph - N/A   Overcast
1:36 PM 77.0 °F 66.2 °F 69% 30.03 in 10.0 mi South 4.6 mph - N/A   Overcast
1:56 PM 78.1 °F 66.0 °F 66% 30.02 in 10.0 mi Variable 3.5 mph - N/A   Overcast
2:56 PM 75.0 °F 68.0 °F 79% 30.01 in 9.0 mi Variable 6.9 mph - 0.00 in   Overcast
3:27 PM 75.2 °F 68.0 °F 78% 30.01 in 10.0 mi SSE 6.9 mph - 0.00 in   Overcast
3:40 PM 73.4 °F 66.2 °F 78% 30.00 in 10.0 mi Variable 6.9 mph - 0.00 in   Overcast
3:56 PM 73.9 °F 68.0 °F 82% 29.99 in 9.0 mi Variable 5.8 mph - 0.00 in   Overcast
4:09 PM 73.4 °F 69.8 °F 88% 29.99 in 5.0 mi Variable 5.8 mph - 0.00 in Rain Light Rain
4:20 PM 73.4 °F 69.8 °F 88% 29.98 in 10.0 mi SSE 3.5 mph - 0.00 in   Overcast
4:45 PM 73.4 °F 68.0 °F 83% 29.99 in 6.0 mi Variable 4.6 mph - 0.00 in Rain Light Rain
4:56 PM 72.0 °F 69.1 °F 91% 29.98 in 5.0 mi Variable 3.5 mph - 0.00 in Rain Light Rain
5:10 PM 71.6 °F 69.8 °F 94% 29.98 in 9.0 mi Calm Calm - 0.00 in   Overcast
5:37 PM 73.4 °F 69.8 °F 88% 29.97 in 10.0 mi SSE 3.5 mph - 0.00 in   Overcast
5:56 PM 73.0 °F 69.1 °F 87% 29.97 in 10.0 mi SSE 3.5 mph - 0.00 in   Mostly Cloudy
6:11 PM 73.4 °F 69.8 °F 88% 29.97 in 10.0 mi Variable 3.5 mph - N/A   Overcast
6:36 PM 73.4 °F 69.8 °F 88% 29.96 in 10.0 mi Calm Calm - N/A   Overcast
6:56 PM 72.0 °F 69.1 °F 91% 29.96 in 10.0 mi Calm Calm - N/A   Overcast
7:56 PM 72.0 °F 69.1 °F 91% 29.95 in 10.0 mi Calm Calm - 0.00 in Rain Light Rain
8:05 PM 71.6 °F 69.8 °F 94% 29.95 in 10.0 mi Variable 3.5 mph - 0.00 in Rain , Thunderstorm Light Rain
8:28 PM 71.6 °F 69.8 °F 94% 29.94 in 7.0 mi Variable 3.5 mph - 0.02 in Rain , Thunderstorm Light Thunderstorms and Rain
8:56 PM 71.1 °F 69.1 °F 93% 29.94 in 5.0 mi Calm Calm - 0.05 in Rain , Thunderstorm Light Thunderstorms and Rain
9:22 PM 71.6 °F 69.8 °F 94% 29.95 in 4.0 mi Calm Calm - 0.05 in Rain , Thunderstorm Thunderstorms and Rain
9:28 PM 71.6 °F 69.8 °F 94% 29.96 in 4.0 mi Calm Calm - 0.06 in Rain , Thunderstorm Light Thunderstorms and Rain
9:46 PM 71.6 °F 69.8 °F 94% 29.97 in 5.0 mi Calm Calm - 0.08 in Rain , Thunderstorm Thunderstorms and Rain
9:56 PM 71.1 °F 69.1 °F 93% 29.96 in 5.0 mi Calm Calm - 0.09 in Rain , Thunderstorm Light Thunderstorms and Rain
10:13 PM 71.6 °F 69.8 °F 94% 30.00 in 3.0 mi SW 3.5 mph - 0.02 in Rain , Thunderstorm Light Thunderstorms and Rain
10:19 PM 71.6 °F 69.8 °F 94% 30.00 in 1.8 mi WSW 3.5 mph - 0.08 in Rain , Thunderstorm Heavy Thunderstorms and Rain
10:28 PM 71.6 °F 69.8 °F 94% 30.01 in 1.0 mi Calm Calm - 0.21 in Rain , Thunderstorm Heavy Thunderstorms and Rain
10:38 PM 71.6 °F 69.8 °F 94% 29.98 in 1.5 mi North 5.8 mph - 0.37 in Rain , Thunderstorm Heavy Thunderstorms and Rain
10:47 PM 69.8 °F 69.8 °F 100% 29.99 in 3.0 mi Calm Calm - 0.40 in Rain , Thunderstorm Thunderstorms and Rain
10:56 PM 70.0 °F 68.0 °F 93% 29.98 in 3.0 mi Calm Calm - 0.42 in Rain , Thunderstorm Thunderstorms and Rain
11:08 PM 69.8 °F 68.0 °F 94% 29.99 in 1.8 mi Variable 4.6 mph - 0.09 in Rain , Thunderstorm Heavy Thunderstorms and Rain
11:13 PM 69.8 °F 68.0 °F 94% 30.00 in 2.0 mi Variable 3.5 mph - 0.15 in Rain , Thunderstorm Heavy Thunderstorms and Rain
11:25 PM 69.8 °F 69.8 °F 100% 30.04 in 0.8 mi Calm Calm - 0.43 in Rain , Thunderstorm Heavy Thunderstorms and Rain
11:37 PM 69.8 °F 66.2 °F 88% 30.00 in 0.8 mi NE 4.6 mph - 0.87 in Rain , Thunderstorm Heavy Thunderstorms and Rain
11:46 PM 69.8 °F 68.0 °F 94% 30.01 in 1.8 mi NE 3.5 mph - 0.96 in Rain , Thunderstorm Heavy Thunderstorms and Rain
11:53 PM 69.1 °F 66.9 °F 93% 30.01 in 3.0 mi Calm Calm - 1.00 in Rain , Thunderstorm Heavy Thunderstorms and Rain